Singapore Changi Airport

Airport
ICAO code: 
WSSS
IATA Code: 
SIN
Summary
ICAO Region: 
APAC
Territory: 
Location: 
Changi, East Region
Serving: 
Singapore
Elevation: 
22 ft
Coordinates: 
Aerial View: 
1° 21' 24.48" N, 103° 59' 20.76" E
Airport LOS: 
Parallel Runway Operation
Metar
Observation
WSSS 190130Z 34008KT 290V020 9999 SCT018 FEW020TCU BKN300 28/23 Q1011 NOSIG
Station
Singapore / Changi Airport
Date/Time
2022-01-19 01:30:00
Wind direction
340°
Wind speed
08 kts
Lowest cloud amount
scattered clouds
Temperature
28°C
Dew point
23°C
Humidity
74%
QNH
1011 hPa
Weather condition
n/a

The only international airport in Singapore.

Climatology

Tropical Rainforest climate (Köppen climate classification Af) - almost no distinct seasons, average daily temperature around 27°C throughout the year. Extensive cloud cover and heavy rainfall prevent temperatures from rising much over 33°C. The diurnal temperature change is between 2°C and 5°C which is greater than the annual temperature range of 2°C. Rainfall is heavy and is usually convectional and in the afternoon.

Runways

Designator Length Width Surface Rops
02R/20L 2748 59 ASP Yes/Yes
02C/20C 4000 60 ASP Yes/Yes
02L/20R 4000 60 ASP Yes/Yes

SKYbrary Partners:

Safety knowledge contributed by: